Vorticity
6 3 8 9 5 3 4 3 3 3 5 6 8 7 6 6 5 4 5 4 3 3 3 3 3 4 4 4 5 5 4 4 4 5 6 6 6 6 7 6 5 5 5
11 6 6 4 3 4 5 4 4 4 4 5 6 6 6 5 4 4 3 3 3 3 3 4 4 4 4 4 5 5 6 8 9 9 8 8 7 7 8 8 8 6 5
8 6 5 2 2 4 5 4 4 3 4 5 6 6 6 5 4 4 4 3 3 4 4 4 4 5 6 7 7 10 11 9 8 7 7 8 7 7 7 7 7 6 7
9 7 5 4 4 4 5 4 4 3 4 5 5 6 6 5 5 4 4 4 4 4 3 4 7 9 8 8 9 9 6 5 5 5 5 6 5 6 5 5 5 6 5
13 8 6 4 8 5 5 5 4 3 3 4 5 5 5 5 5 5 5 5 5 3 4 6 9 7 6 8 9 5 5 4 5 7 7 5 4 4 4 5 4 5 5
12 9 7 4 6 6 5 5 4 3 4 4 5 5 5 6 6 6 6 5 4 4 4 7 7 7 7 8 9 5 2 2 5 6 7 8 7 6 5 5 5 5 7
8 14 8 5 4 5 5 6 5 4 4 4 5 5 5 5 6 6 6 5 3 4 5 7 7 6 5 8 7 3 4 6 7 7 9 8 7 5 4 4 5 5 6
2 14 9 6 4 3 4 6 5 4 4 5 5 6 6 5 6 6 6 5 4 4 6 6 5 5 5 6 6 7 6 7 7 6 7 7 7 6 7 4 5 5 5
1 8 11 8 4 3 3 5 5 4 4 5 5 5 5 5 6 6 6 5 5 5 6 5 5 5 5 6 6 7 7 6 7 7 7 7 7 7 8 8 7 6 5
4 4 12 8 5 5 4 5 5 5 5 5 5 5 5 6 6 6 6 5 5 5 5 5 5 5 5 6 6 6 6 6 6 7 7 6 7 7 7 8 8 9 8
5 4 9 8 5 4 4 5 6 5 5 5 5 5 5 5 6 7 6 6 6 6 5 5 5 5 5 5 6 6 6 7 6 7 7 7 6 6 7 7 7 8 8
2 4 7 8 5 5 4 6 6 5 5 5 5 5 5 5 6 7 6 6 6 6 5 5 5 5 5 5 5 6 5 6 6 6 7 7 6 6 6 6 7 7 7
4 6 5 8 6 5 4 7 6 5 5 5 4 5 5 6 6 5 6 6 6 5 5 5 5 6 5 4 4 5 4 5 5 5 5 6 6 6 6 7 7 7 7
7 11 3 9 6 4 4 7 5 5 5 5 4 4 5 5 5 5 5 5 5 5 5 5 5 5 4 5 4 4 4 4 5 5 5 5 5 6 6 6 6 6 6
6 6 -1 12 6 5 4 7 5 5 5 4 5 5 5 5 5 5 5 5 5 6 5 5 5 5 5 4 4 5 5 4 5 5 5 5 5 6 6 5 5 6 6
0 9 -7 10 8 4 5 8 5 5 5 5 4 4 4 5 5 5 5 5 5 5 6 5 5 6 5 5 5 5 5 5 5 5 5 5 5 6 6 5 5 7 7
-1 4 21 1 7 5 5 6 5 5 6 5 5 5 5 5 5 5 5 5 5 5 5 6 5 5 5 5 5 5 5 5 4 5 6 6 5 6 5 6 7 6 5
5 8 28 -18 7 7 6 8 6 5 5 5 5 4 5 5 5 5 5 5 5 5 5 5 5 6 5 6 5 6 6 6 6 7 5 6 6 5 5 5 6 5 6
13 6 21 -26 30 7 8 5 6 6 5 5 5 5 4 4 5 5 4 4 4 4 5 5 5 5 5 6 6 6 6 7 7 7 6 6 4 4 5 6 6 7 8
4 15 22 35 39 -6 0 12 4 5 6 5 5 5 5 4 5 5 4 4 4 4 4 4 5 5 5 6 6 7 7 7 7 7 6 6 6 6 6 7 8 9 9
19 9 16 -22 35 39 -23 3 5 5 6 5 4 5 4 5 5 4 5 5 4 4 4 4 4 5 6 6 6 7 7 8 8 7 6 5 5 6 9 9 10 8 5
9 20 -13 6 28 3 13 -19 5 3 5 7 4 5 6 6 6 5 5 4 4 4 4 4 5 5 5 6 5 6 7 8 6 8 6 6 7 8 8 8 7 7 7
18 1 19 1 1 29 -12 4 1 3 1 6 7 6 6 6 6 6 5 4 4 4 4 4 4 5 6 6 6 6 9 7 7 6 6 6 7 9 10 9 8 6 5
-11 33 -8 13 12 20 5 9 -16 15 9 7 11 5 4 6 6 6 5 5 4 4 4 5 5 5 6 6 6 7 8 8 7 8 6 7 8 8 8 7 6 6 6
15 0 26 3 29 17 -3 31 28 21 2 3 5 7 6 6 6 5 5 5 5 4 4 5 6 6 5 5 6 7 8 7 6 6 7 9 10 8 8 5 5 4 5
18 11 11 12 15 13 18 17 -41 27 0 -5 6 5 8 5 5 5 3 4 4 6 5 5 5 5 6 6 9 9 9 7 5 5 8 9 6 5 5 6 6 7 8
Height
3158 3160 3162 3163 3165 3166 3166 3167 3168 3168 3168 3168 3168 3169 3169 3170 3171 3171 3172 3173 3173 3173 3173 3173 3173 3173 3172 3171 3171 3170 3169 3168 3168 3167 3166 3166 3166 3166 3167 3166 3166 3165 3165
3157 3159 3161 3163 3164 3165 3166 3167 3168 3168 3168 3168 3169 3169 3170 3171 3172 3172 3173 3173 3174 3174 3173 3173 3173 3172 3172 3171 3170 3170 3169 3168 3167 3167 3166 3166 3166 3166 3166 3166 3166 3164 3164
3155 3157 3160 3162 3164 3164 3166 3166 3167 3168 3169 3169 3169 3170 3170 3171 3172 3173 3173 3173 3174 3174 3173 3173 3172 3172 3171 3170 3169 3169 3168 3167 3167 3167 3166 3166 3166 3165 3165 3165 3165 3164 3164
3153 3155 3158 3160 3163 3164 3165 3166 3167 3168 3169 3169 3169 3170 3170 3171 3172 3173 3174 3174 3173 3174 3174 3173 3173 3171 3171 3170 3169 3169 3169 3168 3168 3167 3167 3167 3166 3165 3164 3164 3163 3163 3163
3152 3154 3157 3159 3161 3163 3164 3165 3166 3167 3168 3169 3169 3170 3170 3171 3172 3173 3174 3174 3174 3174 3174 3173 3173 3172 3171 3170 3170 3169 3169 3169 3169 3168 3167 3167 3165 3165 3164 3164 3163 3163 3162
3151 3152 3154 3157 3160 3161 3163 3164 3165 3166 3167 3168 3169 3170 3170 3171 3172 3173 3174 3174 3174 3174 3174 3173 3172 3172 3171 3170 3170 3169 3170 3170 3169 3168 3167 3166 3165 3164 3164 3163 3163 3162 3162
3149 3150 3152 3155 3158 3160 3162 3163 3164 3165 3166 3167 3168 3169 3170 3171 3171 3172 3173 3174 3174 3174 3174 3173 3173 3172 3172 3171 3170 3170 3170 3169 3169 3168 3167 3166 3165 3164 3163 3162 3162 3161 3160
3146 3148 3150 3153 3155 3158 3160 3162 3163 3165 3166 3167 3168 3169 3170 3170 3171 3172 3173 3173 3174 3174 3174 3174 3173 3173 3172 3171 3171 3171 3170 3169 3168 3167 3166 3165 3164 3163 3163 3161 3161 3160 3159
3143 3145 3148 3151 3153 3156 3159 3160 3162 3164 3165 3167 3168 3168 3169 3170 3171 3171 3173 3173 3173 3174 3174 3174 3173 3173 3172 3172 3171 3172 3171 3169 3168 3167 3166 3165 3164 3163 3162 3160 3159 3158 3158
3140 3142 3145 3148 3151 3154 3157 3159 3161 3163 3164 3166 3167 3168 3168 3169 3170 3171 3172 3172 3173 3173 3174 3174 3174 3173 3172 3172 3171 3171 3170 3168 3168 3167 3165 3164 3163 3162 3161 3160 3159 3157 3156
3135 3139 3142 3145 3148 3152 3154 3157 3159 3161 3163 3165 3167 3168 3168 3168 3169 3171 3170 3171 3172 3173 3173 3173 3173 3173 3172 3171 3171 3170 3169 3169 3168 3166 3165 3164 3162 3161 3159 3158 3157 3156 3154
3131 3135 3138 3141 3145 3149 3152 3154 3157 3159 3161 3163 3165 3167 3168 3168 3168 3170 3169 3170 3171 3172 3172 3173 3173 3172 3171 3171 3171 3170 3169 3168 3167 3166 3164 3163 3162 3160 3159 3157 3156 3155 3153
3128 3131 3135 3138 3142 3146 3149 3152 3154 3157 3159 3161 3163 3165 3167 3168 3167 3168 3168 3169 3170 3170 3171 3172 3172 3171 3171 3170 3169 3169 3167 3167 3165 3164 3163 3161 3160 3159 3157 3156 3155 3153 3152
3122 3126 3131 3135 3139 3142 3146 3149 3152 3154 3157 3159 3161 3163 3165 3166 3167 3167 3167 3167 3169 3170 3170 3171 3171 3171 3170 3169 3168 3168 3166 3165 3164 3163 3162 3160 3159 3157 3156 3154 3153 3151 3149
3116 3121 3128 3133 3136 3139 3143 3146 3149 3152 3154 3156 3159 3161 3163 3165 3165 3166 3166 3165 3168 3169 3169 3170 3170 3169 3168 3168 3166 3165 3166 3163 3163 3161 3160 3159 3157 3156 3154 3152 3151 3149 3148
3113 3117 3124 3129 3132 3136 3140 3144 3147 3149 3152 3154 3156 3159 3161 3162 3163 3165 3165 3166 3166 3168 3168 3168 3168 3168 3167 3166 3165 3164 3163 3163 3161 3160 3158 3157 3155 3154 3152 3150 3148 3147 3145
3109 3114 3119 3124 3126 3130 3136 3140 3144 3147 3150 3152 3154 3156 3158 3160 3161 3163 3163 3164 3165 3166 3166 3166 3166 3166 3165 3164 3163 3162 3161 3160 3160 3158 3156 3155 3153 3151 3149 3148 3146 3144 3142
3107 3110 3115 3116 3124 3126 3130 3137 3141 3144 3147 3149 3151 3153 3154 3157 3159 3161 3161 3161 3162 3163 3164 3164 3164 3164 3163 3163 3161 3160 3158 3157 3156 3156 3154 3152 3150 3148 3146 3145 3143 3141 3139
3107 3110 3112 3106 3116 3123 3126 3133 3138 3142 3144 3146 3148 3150 3151 3154 3157 3158 3158 3159 3159 3160 3161 3161 3161 3161 3161 3160 3159 3157 3156 3154 3153 3152 3150 3150 3148 3145 3143 3142 3139 3137 3135
3102 3106 3107 3109 3101 3114 3124 3126 3135 3139 3141 3143 3145 3147 3149 3151 3153 3155 3155 3156 3157 3157 3158 3158 3158 3158 3157 3156 3155 3154 3153 3152 3149 3148 3147 3145 3143 3143 3141 3138 3136 3134 3132
3097 3102 3105 3106 3108 3110 3119 3124 3129 3134 3139 3140 3141 3144 3146 3149 3150 3152 3152 3153 3153 3154 3154 3154 3154 3154 3154 3153 3151 3150 3148 3147 3145 3144 3142 3141 3140 3137 3135 3134 3132 3131 3128
3093 3097 3102 3104 3104 3107 3112 3121 3125 3128 3134 3134 3136 3138 3140 3144 3146 3147 3148 3149 3149 3150 3150 3150 3150 3149 3149 3148 3147 3146 3144 3144 3141 3140 3137 3135 3135 3133 3131 3129 3126 3125 3124
3088 3094 3099 3099 3105 3102 3105 3114 3118 3122 3127 3130 3132 3135 3137 3139 3141 3142 3144 3144 3144 3145 3145 3144 3144 3144 3143 3142 3142 3141 3139 3138 3136 3135 3132 3130 3128 3127 3126 3125 3122 3120 3119
3087 3089 3094 3097 3098 3100 3109 3110 3113 3114 3123 3127 3126 3127 3131 3135 3136 3138 3139 3140 3140 3139 3139 3139 3139 3138 3138 3137 3136 3134 3133 3131 3130 3130 3128 3125 3123 3121 3120 3118 3116 3114 3113
3082 3086 3090 3092 3097 3099 3102 3098 3106 3111 3116 3118 3121 3124 3126 3128 3129 3131 3132 3134 3134 3133 3133 3133 3133 3132 3131 3131 3130 3128 3126 3125 3124 3123 3122 3120 3118 3116 3115 3112 3110 3107 3105
3079 3083 3086 3089 3094 3097 3102 3104 3102 3109 3110 3112 3115 3118 3120 3121 3123 3124 3124 3125 3126 3126 3127 3127 3127 3126 3125 3123 3122 3122 3121 3120 3117 3116 3115 3113 3112 3110 3107 3105 3102 3100 3097